Regional Weather Roundup
Issued by NWS

Home | Current Version | Previous Version | Graphics & Text | Print | Product List | Glossary On
Versions: 1 2 3 4 5 6 7 8 9 10 11 12 13 14 15 16 17 18 19 20 21 22 23 24 25 26 27 28 29 30 31 32 33 34 35 36 37 38 39 40 41 42 43 44 45 46 47 48 49 50
000
ASUS43 KMKX 260321
RWRWI

WISCONSIN REGIONAL WEATHER ROUNDUP
NATIONAL WEATHER SERVICE MILWAUKEE/SULLIVAN WI
1000 PM CDT TUE JUL 25 2017

NOTE: "FAIR" INDICATES FEW OR NO CLOUDS BELOW 12,000 FEET WITH NO
SIGNIFICANT WEATHER AND/OR OBSTRUCTIONS TO VISIBILITY.

WIZ001-002-006>008-014>016-023>028-260400-
NORTHWEST WISCONSIN

CITY           SKY/WX    TMP DP  RH WIND       PRES   REMARKS
SUPERIOR ARPT  NOT AVBL
ASHLAND        CLOUDY    71  65  81 S5        29.94F
HAYWARD        MOCLDY    72  65  78 S6        29.96F
SIREN          PTCLDY    73  67  83 SE3       29.94F
CUMBERLAND     CLOUDY    68  64  88 CALM      29.96F
RICE LAKE      CLOUDY    71  66  85 SE7       29.97F
CHETEK         CLOUDY    71  67  89 SE3       29.97F
LADYSMITH      CLOUDY    72  65  79 SE7       30.02F
EAU CLAIRE     PTCLDY    73  66  78 SE8       29.96F
MENOMONIE      CLOUDY    72  69  89 E7        29.96S
NEW RICHMOND   CLOUDY    76  69  77 SW8       29.95F
OSCEOLA        CLOUDY    78  71  79 S5        29.96S
$$

WIZ003>005-009-010-017-018-260400-
NORTH CENTRAL WISCONSIN

CITY           SKY/WX    TMP DP  RH WIND       PRES   REMARKS
MANITOWISH WTR CLOUDY    68  64  89 S9        30.03R
ARBOR VITAE    CLOUDY    69  64  81 S12       30.03S
WOODRUFF       CLOUDY    69  64  81 S12       30.03S
RHINELANDER    CLOUDY    68  63  84 S8        30.05F
EAGLE RIVER    CLOUDY    66  58  75 S6        30.05R
LAND O LAKES   CLOUDY    68  60  75 S8        30.05S
PHILLIPS       CLOUDY    69  65  87 S9        30.01F
TOMAHAWK         N/A     65  63  91 CALM      30.04F
MEDFORD        CLOUDY    68  64  85 S13       30.03F
MERRILL        NOT AVBL
$$

WIZ029-030-035-036-043>047-260400-
CENTRAL WISCONSIN

CITY           SKY/WX    TMP DP  RH WIND       PRES   REMARKS
WAUSAU         CLOUDY    71  63  75 S9        30.05S
MOSINEE        PTCLDY    70  64  83 S8        30.08S
MARSHFIELD     MOCLDY    69  63  81 S6        30.05F
STEVENS POINT  MOCLDY    69  63  80 S8        30.07S
WAUPACA        CLOUDY    71  63  74 SE5       30.08S
WAUTOMA        MOCLDY    71  63  75 S3        30.08S
WISC RAPIDS    CLOUDY    71  64  78 S6        30.07F
CAMP DOUGLAS   MOCLDY    66  64  94 CALM      30.04F
$$

WIZ011>013-019>022-031-037>040-048>050-260400-
NORTHEAST WISCONSIN

CITY           SKY/WX    TMP DP  RH WIND       PRES   REMARKS
ANTIGO         CLOUDY    64  64  99 S5        30.09R
SHAWANO        LGT RAIN  68  65  89 SE7       30.07F
OCONTO         CLOUDY    66  63  88 S6        30.09F
STURGEON BAY     N/A     68  59  73 S12       30.12R
GREEN BAY      CLOUDY    69  63  81 S6        30.10R
MANITOWOC      CLOUDY    69  60  73 S10       30.11R
APPLETON       MOCLDY    72  55  56 S10       30.08R
CLINTONVILLE   CLOUDY   N/A N/A N/A S7        30.07F
OSHKOSH        CLOUDY    70  61  73 SE8       30.08S
$$

WIZ032>034-041-042-053>061-260400-
SOUTHWEST WISCONSIN

CITY           SKY/WX    TMP DP  RH WIND       PRES   REMARKS
LA CROSSE      CLOUDY    77  70  79 SE7       30.01F
SPARTA         CLOUDY    69  65  87 CALM      30.05F
VIROQUA        CLOUDY    71  69  92 S10G18    30.05F
BOSCOBEL       MOCLDY    75  67  76 VRB3      30.07R
PRAIRIE DU CHI MOCLDY    74  66  77 E5        30.05F
PLATTEVILLE    CLOUDY    70  69  98 SE7       30.10S
$$

WIZ056-057-062-063-064-067-068-260400-
SOUTH CENTRAL WISCONSIN

CITY           SKY/WX    TMP DP  RH WIND       PRES   REMARKS
REEDSBURG      CLOUDY    71  67  88 S8        30.07S
BARABOO/DELLS  CLOUDY    72  63  74 S10       30.07F
LONE ROCK      CLOUDY    72  67  84 S3        30.07S
MINERAL POINT  CLOUDY    72  68  88 S7        30.10S
MADISON        MOCLDY    72  63  73 S10       30.09F
MIDDLETON      PTCLDY    72  63  71 S7        30.10S
WATERTOWN      CLOUDY    66  64  91 S5        30.11S
MONROE         CLOUDY    68  61  77 S9        30.12S
JANESVILLE     CLOUDY    72  61  68 S5        30.12S
$$

WIZ051-052-058>065-066-070>072-260400-
SOUTHEAST WISCONSIN

CITY           SKY/WX    TMP DP  RH WIND       PRES   REMARKS
MILWAUKEE      MOCLDY    71  59  65 S9        30.12F
WAUKESHA       NOT AVBL
MILWAUKEE/TIMM MOCLDY    70  54  56 S8        30.13S
RACINE         MOCLDY    71  62  73 S9        30.15S
KENOSHA        PTCLDY    70  61  73 S9        30.14F
FOND DU LAC    CLOUDY    70  61  73 S9        30.09S
SHEBOYGAN      CLOUDY    68  61  78 S7        30.12R
WEST BEND      CLOUDY    68  57  68 S6        30.11S
JUNEAU         PTCLDY    67  62  81 SE7       30.12R
$$

LSZ147-162-260400-
LAKE SUPERIOR

STATION/POSITION TIME  TEMP    WIND        PRES    WAVE
                       AIR SEA DIR/SP/G            HT/PER
                 (UTC) (F)     (DEG/KT/KT) (MB)    (FT/S)
W MID LAKE BUOY  0250   59 52  210/  8/ 10 1013.4R   1
DEVILS ISLAND    0300   67     230/  5/  6 1013.2F
PORT WING        0130   71     200/  7/ 10 1013.5R
SAXON HARBOR     0240   74     190/  6/ 12 1013.5R
$$

LMZ867-665-643>646-260400-
LAKE MICHIGAN

STATION/POSITION TIME  TEMP    WIND        PRES    WAVE
                       AIR SEA DIR/SP/G            HT/PER
                 (UTC) (F)     (DEG/KT/KT) (MB)    (FT/S)
CHAMBERS ISLAND  0240   68     140/  6/ 14 1018.3R
S GREEN BAY BUOY 0300   67 72  180/ 16/ 19 1018.7
N MID LAKE BUOY  0250   69 66  200/ 17/ 19 1019.8R   3/ 5
NORTHPORT PIER   0240   68     160/  7/ 11 1019.6R
KEWAUNEE LAKESHO 0254   69     190/ 14/ 18 1019.0R
SHEBOYGAN LAKESH 0300   69     180/ 12/ 13 1019.7R
PORT WASHINGTON  0240   71     190/  8/ 12 1020.3F
ATWATER BUOY     0209   70 68  180/  8/ 10 1020.1R
MILWAUKEE LAKESH 0300   72     190/ 12/ 14   N/A
S MID LAKE BUOY  0250   72 71  140/  8/ 10 1021.0R   1
KENOSHA   LAKESH 0300   71     170/ 11/ 12 1020.0
$$

TC  - TEMPERATURE IN CELSIUS
VSB - VISIBILITY IN STATUTE MILES
WCI - WIND CHILL INDEX
HX  - HEAT INDEX





USA.gov is the U.S. government's official web portal to all federal, state and local government web resources and services.